Lake Charles, LA

8:46 AM CST on February 23, 2017 (GMT -0600)
Chennault International

Weather History for KCWF - February, 2013

Change the Weather History Date:

Wednesday, February 20, 2013

  Actual Average Record
Temperature  
Mean Temperature 53 °F -  
Max Temperature 60 °F 65 °F 78 °F (2004)
Min Temperature 46 °F 50 °F 33 °F (2006)
Degree Days  
Heating Degree Days 12    
Growing Degree Days 3 (Base 50)    
Moisture  
Dew Point 36 °F    
Average Humidity 56    
Maximum Humidity 68    
Minimum Humidity 38    
Precipitation  
Precipitation 0.00 in - - ()
Sea Level Pressure  
Sea Level Pressure 30.11 in    
Wind  
Wind Speed 8 mph (East)    
Max Wind Speed 16 mph    
Max Gust Speed 24 mph    
Visibility 10 miles    
Events      
Averages and records for this station are not official NWS values.
T = Trace of Precipitation, MM = Missing Value Source: NWS Daily Summary

Daily Weather History Graph

Daily Weather History Graph

Search for Another Location

Airport or City:

Trip Planner

Search our weather history database for the weather conditions in past years. The results will help you decide how hot, cold, wet, or windy it might be!

Date:

Astronomy

Feb. 20, 2013 Rise Set
Actual Time 6:47 AM CST 6:05 PM CST
Civil Twilight 6:23 AM CST 6:29 PM CST
Nautical Twilight 5:55 AM CST 6:57 PM CST
Astronomical Twilight 5:27 AM CST 7:25 PM CST
Moon 1:39 PM CST (2/20) 2:55 AM CST (2/20)
Length of Visible Light 12h 06m
Length of Day
11h 17m
Waxing Gibbous, 76% of the Moon is Illuminated
Feb 20
Waxing Gibbous
Feb 25
Full
Mar 4
Last Quarter
Mar 11
New
Mar 19
First Quarter

Hourly Weather History & Observations

Time (CST) Temp. Windchill Dew Point Humidity Pressure Visibility Wind Dir Wind Speed Gust Speed Precip Events Conditions
12:15 AM 50.4 °F - 36.1 °F 58% 30.22 in 10.0 mi NE 4.6 mph - N/A   Clear
12:35 AM 50.4 °F - 36.1 °F 58% 30.21 in 10.0 mi NE 5.8 mph - N/A   Clear
12:55 AM 50.0 °F - 36.3 °F 59% 30.19 in 10.0 mi NE 8.1 mph - N/A   Clear
1:15 AM 50.2 °F - 36.3 °F 59% 30.19 in 10.0 mi ENE 5.8 mph - N/A   Clear
1:35 AM 50.0 °F - 36.9 °F 61% 30.18 in 10.0 mi ENE 9.2 mph - N/A   Clear
1:55 AM 49.5 °F - 36.9 °F 62% 30.16 in 10.0 mi ENE 9.2 mph 16.1 mph N/A   Clear
2:15 AM 49.5 °F - 35.8 °F 59% 30.18 in 10.0 mi ENE 6.9 mph - N/A   Clear
2:35 AM 49.3 °F - 35.4 °F 59% 30.18 in 10.0 mi ENE 5.8 mph - N/A   Clear
3:15 AM 46.8 °F - 36.7 °F 68% 30.18 in 10.0 mi East 5.8 mph - N/A   Clear
3:35 AM 46.9 °F - 36.5 °F 67% 30.18 in 10.0 mi East 5.8 mph - N/A   Clear
3:55 AM 47.1 °F - 36.0 °F 65% 30.17 in 10.0 mi East 4.6 mph - N/A   Clear
4:15 AM 47.1 °F - 36.5 °F 67% 30.17 in 10.0 mi ENE 6.9 mph - N/A   Mostly Cloudy
4:35 AM 47.5 °F - 35.8 °F 64% 30.16 in 10.0 mi East 8.1 mph - N/A   Mostly Cloudy
4:55 AM 47.7 °F - 34.2 °F 60% 30.16 in 10.0 mi East 9.2 mph - N/A   Scattered Clouds
5:15 AM 47.7 °F - 32.2 °F 55% 30.18 in 10.0 mi ENE 8.1 mph - N/A   Clear
5:35 AM 47.7 °F - 32.4 °F 55% 30.18 in 10.0 mi ENE 5.8 mph - N/A   Clear
5:55 AM 46.6 °F - 33.6 °F 61% 30.18 in 10.0 mi East 6.9 mph - N/A   Clear
6:00 AM 46.4 °F 42.9 °F 33.8 °F 62% 30.18 in 10.0 mi East 6.9 mph - N/A   Clear
6:45 AM 46.4 °F 43.5 °F 32.0 °F 57% 30.20 in 10.0 mi ENE 5.8 mph - N/A   Mostly Cloudy
7:45 AM 48.2 °F - 30.2 °F 50% 30.19 in 10.0 mi ENE 11.5 mph 17.3 mph N/A   Mostly Cloudy
8:58 AM 48.2 °F - 26.6 °F 43% 30.22 in 10.0 mi East 8.1 mph - N/A   Mostly Cloudy
9:45 AM 50.0 °F - 26.6 °F 40% 30.18 in 10.0 mi East 16.1 mph 21.9 mph N/A   Mostly Cloudy
10:45 AM 53.6 °F - 30.2 °F 41% 30.14 in 10.0 mi East 15.0 mph 24.2 mph N/A   Mostly Cloudy
11:45 AM 55.4 °F - 30.2 °F 38% 30.16 in 10.0 mi ESE 10.4 mph 18.4 mph N/A   Mostly Cloudy
12:50 PM 59.0 °F - 35.6 °F 42% 30.11 in 10.0 mi East 11.5 mph 20.7 mph N/A   Mostly Cloudy
2:50 PM 60.8 °F - 39.2 °F 45% 30.06 in 10.0 mi East 13.8 mph 19.6 mph N/A   Mostly Cloudy
3:50 PM 59.0 °F - 41.0 °F 51% 30.03 in 10.0 mi East 15.0 mph - N/A   Overcast
5:53 PM 57.2 °F - 39.2 °F 51% 30.00 in 10.0 mi East 13.8 mph - N/A   Overcast
6:57 PM 57.2 °F - 37.4 °F 48% 30.01 in 10.0 mi East 13.8 mph 18.4 mph N/A   Overcast
7:57 PM 57.2 °F - 37.4 °F 48% 30.00 in 10.0 mi East 11.5 mph - N/A   Overcast
8:52 PM 55.4 °F - 37.4 °F 51% 29.99 in 10.0 mi East 11.5 mph 20.7 mph N/A   Overcast
9:50 PM 55.4 °F - 39.2 °F 54% 29.98 in 10.0 mi East 11.5 mph 17.3 mph N/A   Overcast
10:15 PM 55.4 °F - 41.0 °F 58% 29.97 in 10.0 mi East 9.2 mph - N/A   Overcast
10:35 PM 55.4 °F - 41.5 °F 60% 29.97 in 10.0 mi East 10.4 mph - N/A   Overcast
10:55 PM 55.2 °F - 42.6 °F 63% 29.97 in 10.0 mi East 10.4 mph - N/A   Overcast
11:15 PM 55.2 °F - 43.2 °F 64% 29.97 in 10.0 mi East 10.4 mph - N/A   Overcast
11:35 PM 55.0 °F - 43.3 °F 65% 29.97 in 10.0 mi East 11.5 mph 16.1 mph N/A   Overcast
11:55 PM 54.7 °F - 44.1 °F 67% 29.96 in 10.0 mi East 10.4 mph - N/A   Overcast